Weather in Mukactevo

Ukraine / Zakarpattia District     48°26′31″N   22°43′05″E
temp.,
°C
wind,
m/s
gust,
m/s
humid.,
%
clouds,
%
prec.,
mm/h
press.,
hPa
HPBL,
m
12 august, fri
fri1200:00+15ne33755 0.0 101953
03:00+13ne338414 0.0 101953
06:00+12ne33855 0.0 101953
09:00+19ne23540 0.0 1019259
12:00+27nne12290 0.0 10181634
15:00+30ene13246 0.0 10162690
18:00+27ene5539100 0.0 10151090
21:00+20ne4570100 0.0 1015124
13 august, sat
sat1300:00+17ne3483100 0.0 101573
03:00+16ne3390100 0.0 101547
06:00+15ne3391100 0.0 101445
09:00+21ne236519 0.0 1014433
12:00+28ne11415 0.0 10121515
15:00+29n3236100 0.0 10102517
18:00+26nne454961 0.1 1010774
21:00+20nne347550 0.1 101083
14 august, sun
sun1400:00+18ne3487100 0.0 101071
03:00+17ne339378 0.0 100958
06:00+17ne229282 0.0 100942
09:00+22ne2367100 0.0 1009567
12:00+27nne1149100 0.0 10081248
15:00+28nne2243100 0.0 10071740
18:00+28nne3343100 0.0 10061419
21:00+22nne346938 0.0 100652
15 august, mon
mon1500:00+18ne3290100 1.5 100733
03:00+17ene118946 3.4 100712
06:00+16ene2192100 0.6 100718
09:00+19se118172 0.9 1007183
12:00+24s325950 0.3 1007792
15:00+27ssw324899 0.4 10061105
18:00+28sse124423 0.1 10051086
21:00+17nnw339186 1.5 100844
16 august, tue
tue1600:00+17ene229124 0.6 100835
03:00+17ene218910 0.7 100816
06:00+16ne22923 0.6 100817
09:00+21ese117817 0.8 1008181
12:00+26s3349100 0.0 1009995
15:00+30ssw343791 0.0 10081688
18:00+30sw353462 0.0 10072330
21:00+22nnw476411 0.1 1009194